EW2565 Weather Reports


time (UTC)temp
F
wind
direction
speed
knots
gust
knots
rain 1hr
in
rain 24hr
in
rain mn
in
humidity
%
barometer
mb
20260505170033 43 134 0.9 7.0 0.00 0.49 0.49 86 1003.2
20260505164535 42 134 0.0 7.0 0.00 0.49 0.49 87 1003.0
20260505163033 42 134 0.0 2.6 0.00 0.49 0.49 86 1002.9
20260505161531 42 134 0.9 2.6 0.04 0.49 0.49 86 1002.7
20260505153028 38 134 0.9 5.2 0.18 0.49 0.49 89 1002.5
20260505151527 39 134 1.7 3.5 0.16 0.47 0.47 89 1002.5
20260505124507 43 134 0.0 1.7 0.03 0.13 0.13 85 1001.0
20260505123003 43 134 0.0 3.5 0.06 0.12 0.12 85 1000.7
20260505121503 43 134 0.9 2.6 0.07 0.12 0.12 86 1000.8
20260505120004 43 134 1.7 4.3 0.06 0.11 0.11 88 1000.7
20260505114602 44 134 2.6 4.3 0.06 0.11 0.11 87 1000.9
20260505113118 44 134 0.0 0.9 0.02 0.07 0.07 85 1001.1
20260505111557 45 134 0.0 0.9 0.00 0.05 0.05 85 1001.1
20260505101556 45 134 3.5 8.7 0.04 0.05 0.05 85 1000.9
20260505100053 45 134 6.1 8.7 0.05 0.05 0.05 81 1000.8
20260505094550 45 134 0.9 3.5 0.04 0.04 0.04 82 1001.4
20260505093057 46 134 0.9 3.5 0.03 0.03 0.03 78 1001.5
20260505091557 47 134 0.9 4.3 0.01 0.01 0.01 74 1001.5
20260505090042 49 134 0.9 3.5 0.00 0.00 0.00 68 1001.3
20260505084542 51 134 2.6 7.0 0.00 0.00 0.00 60 1001.2
20260505083041 51 134 1.7 4.3 0.00 0.00 0.00 59 1001.1
20260505081540 52 134 1.7 4.3 0.00 0.00 0.00 56 1001.1
20260505080044 51 134 0.9 4.3 0.00 0.00 0.00 54 1001.2
20260505074537 51 134 0.9 4.3 0.00 0.00 0.00 53 1001.1
20260505073037 49 134 0.9 3.5 0.00 0.00 0.00 58 1000.7
20260505071541 50 134 0.0 0.9 0.00 0.00 0.00 57 1000.6
20260505070033 50 134 0.0 0.9 0.00 0.00 0.00 53 1000.5
20260505064531 50 134 0.0 1.7 0.00 0.00 0.00 53 1000.5
20260505063031 51 134 0.0 4.3 0.00 0.00 0.00 52 1000.5
20260505061530 51 134 0.0 1.7 0.00 0.00 0.00 49 1000.4
20260505060042 51 134 0.9 4.3 0.00 0.00 0.00 48 1000.5
20260505054533 49 134 0.0 2.6 0.00 0.00 0.00 54 1000.5
20260505053030 50 134 0.0 1.7 0.00 0.00 0.00 57 1000.3
20260505051527 51 134 0.0 1.7 0.00 0.00 0.00 49 1000.2
20260505041522 56 134 0.0 3.5 0.00 0.00 0.00 40 1000.0
20260505040015 56 134 4.3 6.1 0.00 0.00 0.00 38 999.3
20260505034511 57 134 1.7 5.2 0.00 0.00 0.00 36 999.1
20260505033013 58 134 1.7 7.8 0.00 0.00 0.00 37 999.0
20260505031510 57 134 2.6 6.1 0.00 0.00 0.00 37 998.8
20260505030010 57 134 3.5 7.0 0.00 0.00 0.00 39 998.8
20260505024517 56 134 2.6 7.0 0.00 0.00 0.00 41 998.7
20260505023022 55 134 2.6 6.1 0.00 0.00 0.00 44 998.6
20260505021516 56 134 0.9 3.5 0.00 0.00 0.00 44 998.6
20260505020011 58 134 0.0 1.7 0.00 0.00 0.00 41 998.5
20260505014513 60 134 0.0 1.7 0.00 0.00 0.00 42 998.3
20260505013008 61 134 0.0 1.7 0.00 0.00 0.00 39 998.3
20260505011511 64 134 0.0 1.7 0.00 0.00 0.00 30 998.4
20260505010007 59 134 0.9 5.2 0.00 0.00 0.00 35 998.6
20260505004519 58 134 1.7 6.1 0.00 0.00 0.00 37 998.8
20260505003011 58 134 0.0 13.0 0.00 0.00 0.00 37 999.2
20260505001508 58 134 5.2 14.8 0.00 0.00 0.00 40 999.2
20260505000009 61 134 5.2 13.9 0.00 0.00 0.00 36 999.0
20260504234501 61 134 0.9 2.6 0.00 0.00 0.00 35 998.0
20260504233106 63 134 0.9 2.6 0.00 0.00 0.00 42 998.1
20260504231554 65 134 0.0 1.7 0.00 0.00 0.00 26 997.8
20260504224551 65 134 0.0 4.3 0.00 0.00 0.00 28 997.9
20260504223058 65 134 0.9 3.5 0.00 0.00 0.00 30 998.0
20260504221548 66 134 0.9 4.3 0.00 0.00 0.00 27 998.1
20260504220047 65 134 0.9 5.2 0.00 0.00 0.00 37 998.4
20260504214546 64 134 1.7 4.3 0.00 0.00 0.00 29 998.7
20260504213041 66 134 0.9 3.5 0.00 0.00 0.00 28 998.9
20260504211537 62 134 0.0 0.0 0.00 0.00 0.00 33 999.2
20260504210035 62 134 0.0 1.7 0.00 0.00 0.00 30 999.5
20260504204532 62 134 0.0 2.6 0.00 0.00 0.00 32 999.7
20260504203035 60 134 1.7 4.3 0.00 0.00 0.00 37 1000.0
20260504201528 59 134 0.0 2.6 0.00 0.00 0.00 42 1000.1
20260504200027 59 134 0.9 2.6 0.00 0.00 0.00 37 1000.2
20260504194528 62 134 0.9 4.3 0.00 0.00 0.00 34 1000.3
20260504193028 65 134 1.7 5.2 0.00 0.01 0.00 27 1000.4
20260504191526 64 134 0.9 2.6 0.00 0.01 0.00 30 1000.6
20260504190023 63 134 0.9 4.3 0.00 0.01 0.00 32 1000.8
20260504184528 61 134 0.0 3.5 0.00 0.01 0.00 35 1001.1
20260504183024 62 134 1.7 4.3 0.00 0.01 0.00 30 1001.4
20260504181530 61 134 0.0 2.6 0.00 0.01 0.00 38 1001.7
20260504180022 59 134 1.7 4.3 0.00 0.01 0.00 36 1001.9
20260504174518 60 134 1.7 3.5 0.00 0.01 0.00 34 1002.0
20260504173017 61 134 0.9 2.6 0.00 0.01 0.00 34 1002.1